TimeMST,TemperatureF,Dew PointF,Humidity,Sea Level PressureIn,VisibilityMPH,Wind Direction,Wind SpeedMPH,Gust SpeedMPH,PrecipitationIn,Events,Conditions,WindDirDegrees,DateUTC
12:15 AM,14.0,8.6,79,29.79,10.0,NNW,8.1,-,N/A,,Clear,330,2013-01-29 07:15:00
12:55 AM,12.2,6.8,79,29.79,10.0,NW,3.5,-,N/A,,Clear,320,2013-01-29 07:55:00
1:15 AM,12.2,6.8,79,29.79,10.0,NNW,6.9,-,N/A,,Clear,330,2013-01-29 08:15:00
1:35 AM,10.4,5.0,79,29.79,10.0,North,4.6,-,N/A,,Clear,350,2013-01-29 08:35:00
1:55 AM,10.4,5.0,79,29.78,10.0,Calm,Calm,-,N/A,,Partly Cloudy,0,2013-01-29 08:55:00
2:15 AM,10.4,6.8,85,29.78,10.0,Calm,Calm,-,N/A,,Mostly Cloudy,0,2013-01-29 09:15:00
2:55 AM,10.4,6.8,85,29.78,10.0,NW,3.5,-,N/A,,Mostly Cloudy,310,2013-01-29 09:55:00
3:15 AM,10.4,6.8,85,29.78,10.0,WNW,3.5,-,N/A,,Overcast,300,2013-01-29 10:15:00
3:35 AM,10.4,6.8,85,29.77,10.0,Calm,Calm,-,N/A,,Overcast,0,2013-01-29 10:35:00
3:55 AM,10.4,6.8,85,29.77,10.0,Calm,Calm,-,N/A,,Overcast,0,2013-01-29 10:55:00
4:15 AM,12.2,6.8,79,29.76,10.0,ESE,3.5,-,N/A,,Mostly Cloudy,110,2013-01-29 11:15:00
4:35 AM,10.4,6.8,85,29.76,10.0,ESE,4.6,-,N/A,,Mostly Cloudy,110,2013-01-29 11:35:00
4:55 AM,8.6,6.8,92,29.76,10.0,East,3.5,-,N/A,,Overcast,100,2013-01-29 11:55:00
5:15 AM,10.4,6.8,85,29.76,10.0,ESE,4.6,-,N/A,,Overcast,120,2013-01-29 12:15:00
5:35 AM,10.4,6.8,85,29.75,10.0,SSE,6.9,-,N/A,,Mostly Cloudy,150,2013-01-29 12:35:00
5:55 AM,10.4,6.8,85,29.75,10.0,South,5.8,-,N/A,,Scattered Clouds,170,2013-01-29 12:55:00
6:15 AM,10.4,6.8,85,29.74,10.0,South,8.1,-,N/A,,Mostly Cloudy,180,2013-01-29 13:15:00
6:35 AM,10.4,6.8,85,29.75,10.0,SE,3.5,-,N/A,,Mostly Cloudy,130,2013-01-29 13:35:00
6:55 AM,8.6,6.8,92,29.75,10.0,SE,4.6,-,N/A,,Mostly Cloudy,130,2013-01-29 13:55:00
7:15 AM,10.4,6.8,85,29.75,5.0,SSE,9.2,-,N/A,,Overcast,150,2013-01-29 14:15:00
7:35 AM,10.4,6.8,85,29.75,2.5,SE,6.9,-,N/A,,Overcast,140,2013-01-29 14:35:00
7:55 AM,10.4,6.8,85,29.74,3.0,SSE,10.4,-,N/A,,Mostly Cloudy,150,2013-01-29 14:55:00
8:35 AM,10.4,6.8,85,29.75,6.0,ESE,4.6,-,N/A,,Mostly Cloudy,110,2013-01-29 15:35:00
8:55 AM,10.4,6.8,85,29.76,1.0,ESE,3.5,-,N/A,,Overcast,120,2013-01-29 15:55:00
9:15 AM,10.4,6.8,85,29.75,0.8,Calm,Calm,-,N/A,,Overcast,0,2013-01-29 16:15:00
9:35 AM,12.2,8.6,85,29.76,1.0,SE,3.5,-,N/A,,Overcast,140,2013-01-29 16:35:00
9:55 AM,12.2,10.4,92,29.76,1.2,SSE,5.8,-,N/A,,Overcast,150,2013-01-29 16:55:00
10:15 AM,14.0,10.4,86,29.76,1.8,SSE,5.8,-,N/A,,Overcast,160,2013-01-29 17:15:00
10:35 AM,15.8,10.4,79,29.76,1.5,South,5.8,-,N/A,,Mostly Cloudy,170,2013-01-29 17:35:00
10:55 AM,14.0,10.4,86,29.77,3.0,Calm,Calm,-,N/A,,Mostly Cloudy,0,2013-01-29 17:55:00
11:15 AM,17.6,10.4,73,29.77,2.5,Calm,Calm,-,N/A,,Overcast,0,2013-01-29 18:15:00
11:35 AM,15.8,12.2,86,29.77,1.0,Calm,Calm,-,N/A,,Overcast,0,2013-01-29 18:35:00
11:55 AM,15.8,8.6,73,29.76,1.8,Calm,Calm,-,N/A,,Mostly Cloudy,0,2013-01-29 18:55:00
12:15 PM,17.6,12.2,79,29.76,5.0,Calm,Calm,-,N/A,,Mostly Cloudy,0,2013-01-29 19:15:00
12:35 PM,14.0,10.4,86,29.76,1.0,Calm,Calm,-,N/A,,Overcast,0,2013-01-29 19:35:00
12:55 PM,14.0,10.4,86,29.76,1.0,Calm,Calm,-,N/A,,Overcast,0,2013-01-29 19:55:00
1:15 PM,14.0,10.4,86,29.75,1.0,West,4.6,-,N/A,,Overcast,280,2013-01-29 20:15:00
1:35 PM,14.0,10.4,86,29.75,1.2,WNW,4.6,-,N/A,,Overcast,290,2013-01-29 20:35:00
1:55 PM,15.8,12.2,86,29.75,1.0,NNW,5.8,-,N/A,,Overcast,330,2013-01-29 20:55:00
2:15 PM,15.8,12.2,86,29.76,0.8,NNW,5.8,-,N/A,,Overcast,330,2013-01-29 21:15:00
2:35 PM,15.8,12.2,86,29.76,5.0,NW,8.1,-,N/A,,Scattered Clouds,320,2013-01-29 21:35:00
2:55 PM,15.8,10.4,79,29.76,9.0,NNW,10.4,-,N/A,,Clear,330,2013-01-29 21:55:00
3:15 PM,15.8,10.4,79,29.78,8.0,NNW,5.8,-,N/A,,Clear,340,2013-01-29 22:15:00
3:35 PM,15.8,12.2,86,29.79,5.0,North,5.8,-,N/A,,Partly Cloudy,350,2013-01-29 22:35:00
3:55 PM,15.8,10.4,79,29.80,10.0,NNW,5.8,-,N/A,,Mostly Cloudy,330,2013-01-29 22:55:00
4:15 PM,15.8,10.4,79,29.81,10.0,NNW,8.1,-,N/A,,Mostly Cloudy,330,2013-01-29 23:15:00
4:35 PM,15.8,10.4,79,29.82,10.0,NNW,3.5,-,N/A,,Mostly Cloudy,340,2013-01-29 23:35:00
4:55 PM,14.0,10.4,86,29.83,10.0,North,3.5,-,N/A,,Scattered Clouds,360,2013-01-29 23:55:00
5:15 PM,12.2,10.4,92,29.83,10.0,NNW,4.6,-,N/A,,Partly Cloudy,340,2013-01-30 00:15:00
5:35 PM,12.2,10.4,92,29.84,10.0,Calm,Calm,-,N/A,,Clear,0,2013-01-30 00:35:00
5:55 PM,12.2,10.4,92,29.85,10.0,Calm,Calm,-,N/A,,Scattered Clouds,0,2013-01-30 00:55:00
6:15 PM,12.2,10.4,92,29.86,10.0,Calm,Calm,-,N/A,,Mostly Cloudy,0,2013-01-30 01:15:00
6:35 PM,12.2,10.4,92,29.87,10.0,ENE,3.5,-,N/A,,Overcast,60,2013-01-30 01:35:00
6:55 PM,12.2,8.6,85,29.88,10.0,Calm,Calm,-,N/A,,Mostly Cloudy,0,2013-01-30 01:55:00
7:15 PM,12.2,10.4,92,29.89,10.0,Calm,Calm,-,N/A,,Scattered Clouds,0,2013-01-30 02:15:00
7:55 PM,12.2,8.6,85,29.90,10.0,Calm,Calm,-,N/A,,Overcast,0,2013-01-30 02:55:00
8:15 PM,10.4,8.6,92,29.91,10.0,WSW,3.5,-,N/A,,Overcast,250,2013-01-30 03:15:00
8:35 PM,10.4,8.6,92,29.92,10.0,Calm,Calm,-,N/A,,Overcast,0,2013-01-30 03:35:00
8:55 PM,10.4,8.6,92,29.92,4.0,Calm,Calm,-,N/A,,Overcast,0,2013-01-30 03:55:00
9:15 PM,10.4,8.6,92,29.93,10.0,Calm,Calm,-,N/A,,Overcast,0,2013-01-30 04:15:00
9:35 PM,12.2,10.4,92,29.93,10.0,NW,3.5,-,N/A,,Overcast,320,2013-01-30 04:35:00
9:55 PM,10.4,8.6,92,29.94,10.0,Calm,Calm,-,N/A,,Overcast,0,2013-01-30 04:55:00
10:15 PM,10.4,10.4,100,29.95,10.0,NNW,3.5,-,N/A,,Overcast,330,2013-01-30 05:15:00
10:35 PM,10.4,8.6,92,29.94,5.0,Calm,Calm,-,N/A,,Overcast,0,2013-01-30 05:35:00
11:35 PM,10.4,8.6,92,29.95,8.0,WNW,3.5,-,N/A,,Overcast,290,2013-01-30 06:35:00
11:55 PM,10.4,8.6,92,29.96,9.0,NW,5.8,-,N/A,,Overcast,310,2013-01-30 06:55:00